FW9534 Weather Reports


time (UTC)temp
C
wind
direction
speed
KPH
gust
KPH
rain 1hr
cm
rain 24hr
cm
rain mn
cm
humidity
%
barometer
mb
20260504231545 20 0 1.6 12.9 0.00 0.00 0.00 36 1003.6
20260504230044 20 222 3.2 16.1 0.00 0.00 0.00 34 1003.5
20260504224541 21 302 4.8 19.3 0.00 0.00 0.00 33 1003.5
20260504223039 21 202 3.2 16.1 0.00 0.00 0.00 33 1003.5
20260504221554 21 225 3.2 16.1 0.00 0.00 0.00 32 1003.4
20260504220043 21 0 6.4 20.9 0.00 0.00 0.00 33 1003.3
20260504214538 21 182 6.4 17.7 0.00 0.00 0.00 32 1003.5
20260504213043 21 227 4.8 16.1 0.00 0.00 0.00 34 1003.5
20260504211538 21 192 3.2 16.1 0.00 0.00 0.00 37 1003.5
20260504210046 21 196 4.8 25.7 0.00 0.00 0.00 35 1003.8
20260504204537 21 221 8.0 19.3 0.00 0.00 0.00 34 1003.9
20260504203037 21 194 8.0 24.1 0.00 0.00 0.00 36 1004.0
20260504201539 21 274 4.8 27.4 0.00 0.00 0.00 35 1003.9
20260504200038 21 281 6.4 24.1 0.00 0.00 0.00 36 1004.4
20260504194542 20 165 6.4 24.1 0.00 0.00 0.00 37 1004.8
20260504193044 21 301 4.8 22.5 0.00 0.00 0.00 41 1005.0
20260504191604 20 175 9.7 20.9 0.00 0.00 0.00 40 1005.1
20260504190040 20 173 6.4 19.3 0.00 0.00 0.00 39 1005.3
20260504184549 20 288 12.9 45.1 0.00 0.00 0.00 40 1005.4
20260504183038 20 250 6.4 22.5 0.00 0.00 0.00 41 1005.5
20260504181538 20 266 6.4 22.5 0.00 0.00 0.00 42 1005.7
20260504180043 20 297 8.0 24.1 0.00 0.00 0.00 44 1005.8
20260504174538 19 282 8.0 24.1 0.00 0.00 0.00 45 1005.8
20260504173038 19 184 6.4 24.1 0.00 0.00 0.00 46 1005.8
20260504171541 18 261 9.7 30.6 0.00 0.00 0.00 45 1005.8
20260504081542 9 191 6.4 19.3 0.00 0.00 0.00 56 1008.0
20260504044537 9 250 8.0 17.7 0.00 0.00 0.00 57 1009.1
20260504043040 9 223 3.2 17.7 0.00 0.00 0.00 58 1009.2
20260504041541 9 207 1.6 16.1 0.00 0.00 0.00 58 1009.2
20260504040041 9 207 3.2 12.9 0.00 0.00 0.00 59 1009.2
20260504034543 10 300 3.2 17.7 0.00 0.00 0.00 57 1009.2
20260504033050 10 243 3.2 16.1 0.00 0.00 0.00 57 1009.2
20260504031538 10 239 0.0 9.7 0.00 0.00 0.00 56 1009.2
20260504030106 10 231 3.2 17.7 0.00 0.00 0.00 55 1009.2
20260504024544 10 226 6.4 19.3 0.00 0.00 0.00 54 1009.2
20260504023038 11 191 3.2 14.5 0.00 0.00 0.00 53 1009.3
20260504021537 11 231 6.4 20.9 0.00 0.00 0.00 53 1009.5
20260504020037 11 194 6.4 20.9 0.00 0.00 0.00 52 1009.7
20260504014539 11 213 8.0 24.1 0.00 0.00 0.00 52 1009.5
20260504013041 11 238 8.0 19.3 0.00 0.00 0.00 52 1009.7
20260504011538 11 239 6.4 20.9 0.00 0.00 0.00 50 1009.7
20260504010040 11 0 4.8 27.4 0.00 0.00 0.00 49 1009.4
20260504004540 11 169 6.4 24.1 0.00 0.00 0.00 50 1009.5
20260504003042 11 215 9.7 40.2 0.00 0.00 0.00 52 1009.9
20260504001537 11 265 8.0 27.4 0.00 0.00 0.00 48 1009.8
20260504000047 11 246 8.0 38.6 0.00 0.00 0.00 47 1009.8
20260503234540 11 217 9.7 22.5 0.00 0.00 0.00 47 1009.6
20260503233040 11 230 11.3 30.6 0.00 0.00 0.00 47 1009.4